Location: Azalea Creek
(37.1280°N, 119.2623°W)
Time: 08:38:47
(UTC+00:00)

Cosmos 2369 Rocket - Pass Details

Date: 17 February 2020
Orbit: 827 x 854 km, 71.0° (Epoch: 31 March)

Event Time Altitude Azimuth Distance (km) Brightness Sun altitude
Rises 02:41:09 0° 172° (S) 3,363 5.3 -13.3°
Reaches altitude 10° 02:43:50 10° 161° (SSE) 2,437 4.5 -13.8°
Maximum altitude 02:48:36 29° 103° (ESE) 1,484 2.9 -14.7°
Enters shadow 02:51:26 19° 59° (ENE) 1,888 3.5 -15.3°
